Flag for Switzerland Weather past 2 weeks in Olten, Solothurn, Switzerland

Now
68 °F

Mild.


Feels Like: 68 °F
Forecast: 65 / 96 °F
Wind: 1 mph from West

Location: Wynau

Current Time: Jul 4, 2015 at 3:53:35 AM

Latest Report: Jul 4, 2015 at 3:00 AM


Visibility: N/A

Pressure: 30.17 "Hg

Humidity: 95%

Dew point: 66 °F

Location of OltenLocation

Historic Weather in Olten — Graph

°F

Olten temperature yesterday

Maximum temperature yesterday: 94 °F (at 5:00 PM)
Minimum temperature yesterday: 66 °F (at 5:00 AM)
Average temperature yesterday: 79 °F

Past Weeks' High & Low Weather Summary

 TemperatureHumidityPressure
High94 °F (Jul 2, 5:00 PM)100% (Jun 19, 5:00 AM)30.24 "Hg (Jun 19, 5:00 AM)
Low45 °F (Jun 24, 6:00 AM)28% (Jun 30, 6:00 PM)29.74 "Hg (Jun 22, 9:00 PM)
Average66 °F68%30.09 "Hg
* Reported Jun 19 2:00 AM — Jul 4 2:00 AM, Olten, Weather by CustomWeather, © 2015

Note: Actual official high and low records may vary slightly from our data, if they occured in-between our weather recording intervals... More about our weather records

Advertising

Olten weather history for previous 24 hours

 ConditionsComfort  
Time TempWeatherWind HumidityBarometerVisibility
2:00 AM
Sat, Jul 4
68 °FMild.1 mph94%30.16 "HgN/A
1:00 AM69 °FMild.1 mph91%30.16 "HgN/A
12:00 AM71 °FMild.No wind87%30.16 "HgN/A
11:00 PM
Fri, Jul 3
73 °FMild.No wind76%30.15 "HgN/A
10:00 PM76 °FMild.No wind72%30.14 "HgN/A
9:00 PM80 °FWarm.1 mph63%30.11 "HgN/A
8:00 PM84 °FWarm.2 mph56%30.11 "HgN/A
7:00 PM93 °FHot.6 mph39%30.08 "HgN/A
6:00 PM93 °FExtremely hot.2 mph33%30.08 "HgN/A
5:00 PM94 °FExtremely hot.2 mph33%30.09 "HgN/A
4:00 PM93 °FExtremely hot.3 mph36%30.11 "HgN/A
3:00 PM92 °FHot.3 mph38%30.12 "HgN/A
2:00 PM92 °FHot.5 mph37%30.13 "HgN/A
1:00 PM88 °FHot.2 mph40%30.15 "HgN/A
12:00 PM85 °FWarm.2 mph43%30.18 "HgN/A
11:00 AM82 °FWarm.1 mph54%30.19 "HgN/A
10:00 AM79 °FWarm.1 mph60%30.21 "HgN/A
9:00 AM74 °FMild.1 mph72%30.22 "HgN/A
8:00 AM69 °FMild.1 mph85%30.24 "HgN/A
7:00 AM67 °FMild.No wind95%30.24 "HgN/A
6:00 AM66 °FMild.No wind93%30.23 "HgN/A
5:00 AM66 °FMild.1 mph96%30.22 "HgN/A
4:00 AM66 °FMild.1 mph96%30.21 "HgN/A
3:00 AM67 °FMild.1 mph96%30.21 "HgN/A
Weather by CustomWeather, © 2015

See weather overviewHow to use our weather pages